Location: Home
(42.5358°N, 72.7383°W)
Time: 11:16:33
(UTC-05:00)

Vanguard 2 Rocket - Pass Details

Date: 21 December 2025
Orbit: 553 x 3287 km, 32.9° (Epoch: 17 January)

Event Time Altitude Azimuth Distance (km) Brightness Sun altitude
Exits shadow 02:58:11 - 188° (S) 5,924 10.9 -46.7°
Rises 02:58:12 0° 188° (S) 5,921 10.9 -46.7°
Reaches altitude 10° 03:03:28 10° 172° (S) 5,348 10.7 -45.7°
Maximum altitude 03:14:06 20° 133° (SE) 5,128 10.9 -43.8°
Drops below altitude 10° 03:26:14 10° 95° (E) 6,236 11.8 -41.6°
Sets 03:33:02 0° 81° (E) 7,196 12.4 -40.3°
